Madison, SD

12:38 AM CDT on April 23, 2017 (GMT -0500)
Madison Municipal

Weather History for KMDS - January, 2013

Change the Weather History Date:

Monday, January 7, 2013

  Actual Average Record
Temperature  
Mean Temperature 24 °F -  
Max Temperature 33 °F 18 °F 39 °F (2012)
Min Temperature 15 °F -1 °F -9 °F (2015)
Degree Days  
Heating Degree Days 41    
Moisture  
Dew Point 23 °F    
Average Humidity 92    
Maximum Humidity 100    
Minimum Humidity 69    
Precipitation  
Precipitation 0.00 in - - ()
Sea Level Pressure  
Sea Level Pressure 29.90 in    
Wind  
Wind Speed 12 mph (WSW)    
Max Wind Speed 21 mph    
Max Gust Speed 23 mph    
Visibility 10 miles    
Events      
Averages and records for this station are not official NWS values.
T = Trace of Precipitation, MM = Missing Value Source: NWS Daily Summary

Daily Weather History Graph

Daily Weather History Graph

Search for Another Location

Airport or City:

Trip Planner

Search our weather history database for the weather conditions in past years. The results will help you decide how hot, cold, wet, or windy it might be!

Date:

Astronomy

Jan. 07, 2013 Rise Set
Actual Time 8:02 AM CST 5:07 PM CST
Civil Twilight 7:30 AM CST 5:39 PM CST
Nautical Twilight 6:53 AM CST 6:15 PM CST
Astronomical Twilight 6:19 AM CST 6:50 PM CST
Moon 3:25 AM CST (1/7) 1:20 PM CST (1/7)
Length of Visible Light 10h 09m
Length of Day
9h 04m
Waning Crescent, 22% of the Moon is Illuminated
Jan 7
Waning Crescent
Jan 11
New
Jan 18
First Quarter
Jan 26
Full
Feb 3
Last Quarter

Hourly Weather History & Observations

Time (CST) Temp. Windchill Dew Point Humidity Pressure Visibility Wind Dir Wind Speed Gust Speed Precip Events Conditions
12:00 AM 24.8 °F 11.9 °F 24.8 °F 100% 29.86 in 10.0 mi SSW 16.1 mph 23.0 mph N/A   Clear
12:20 AM 26.6 °F 13.1 °F 24.8 °F 93% 29.84 in 10.0 mi SSW 19.6 mph - N/A   Clear
12:40 AM 26.6 °F 12.7 °F 26.6 °F 100% 29.84 in 10.0 mi SSW 20.7 mph - N/A   Clear
1:00 AM 26.6 °F 13.8 °F 26.6 °F 100% 29.84 in 10.0 mi SSW 17.3 mph 23.0 mph N/A   Clear
1:20 AM 26.6 °F 14.3 °F 26.6 °F 100% 29.84 in 10.0 mi SW 16.1 mph - N/A   Clear
1:40 AM 26.6 °F 13.8 °F 26.6 °F 100% 29.85 in 10.0 mi SW 17.3 mph 23.0 mph N/A   Clear
2:00 AM 26.6 °F 14.7 °F 26.6 °F 100% 29.85 in 10.0 mi SW 15.0 mph - N/A   Clear
2:20 AM 26.6 °F 15.7 °F 26.6 °F 100% 29.85 in 10.0 mi SW 12.7 mph 18.4 mph N/A   Clear
2:40 AM 28.4 °F 17.0 °F 28.4 °F 100% 29.85 in 10.0 mi SW 15.0 mph 20.7 mph N/A   Clear
3:00 AM 28.4 °F 17.5 °F 28.4 °F 100% 29.85 in 10.0 mi SW 13.8 mph 20.7 mph N/A   Clear
3:20 AM 26.6 °F 14.3 °F 26.6 °F 100% 29.84 in 10.0 mi SW 16.1 mph 23.0 mph N/A   Clear
3:40 AM 26.6 °F 15.2 °F 26.6 °F 100% 29.84 in 10.0 mi SW 13.8 mph - N/A   Clear
4:00 AM 26.6 °F 16.8 °F 26.6 °F 100% 29.85 in 10.0 mi SW 10.4 mph - N/A   Clear
4:20 AM 26.6 °F 15.2 °F 26.6 °F 100% 29.86 in 10.0 mi WSW 13.8 mph 19.6 mph N/A   Clear
4:40 AM 24.8 °F 14.6 °F 24.8 °F 100% 29.86 in 10.0 mi WSW 10.4 mph - N/A   Clear
5:00 AM 24.8 °F 15.3 °F 24.8 °F 100% 29.86 in 10.0 mi WSW 9.2 mph - N/A   Clear
5:20 AM 24.8 °F 15.3 °F 24.8 °F 100% 29.86 in 10.0 mi WSW 9.2 mph - N/A   Clear
5:40 AM 24.8 °F 15.3 °F 24.8 °F 100% 29.86 in 10.0 mi SW 9.2 mph - N/A   Clear
6:00 AM 21.2 °F 12.6 °F 21.2 °F 100% 29.86 in 10.0 mi SSW 6.9 mph - N/A   Clear
6:20 AM 21.2 °F 13.6 °F 21.2 °F 100% 29.87 in 10.0 mi SW 5.8 mph - N/A   Clear
6:40 AM 23.0 °F 15.8 °F 23.0 °F 100% 29.88 in 10.0 mi WSW 5.8 mph - N/A   Clear
7:00 AM 23.0 °F 15.8 °F 23.0 °F 100% 29.88 in 10.0 mi West 5.8 mph - N/A   Clear
7:20 AM 23.0 °F 13.1 °F 23.0 °F 100% 29.88 in 10.0 mi West 9.2 mph - N/A   Clear
7:40 AM 23.0 °F 13.1 °F 23.0 °F 100% 29.89 in 10.0 mi West 9.2 mph - N/A   Clear
8:00 AM 24.8 °F 16.1 °F 24.8 °F 100% 29.90 in 10.0 mi West 8.1 mph - N/A   Clear
8:20 AM 24.8 °F 19.1 °F 24.8 °F 100% 29.91 in 10.0 mi West 4.6 mph - N/A   Clear
8:40 AM 24.8 °F 16.9 °F 24.8 °F 100% 29.92 in 10.0 mi West 6.9 mph - N/A   Clear
9:00 AM 24.8 °F 17.9 °F 24.8 °F 100% 29.93 in 10.0 mi West 5.8 mph - N/A   Clear
9:20 AM 26.6 °F 18.2 °F 26.6 °F 100% 29.94 in 10.0 mi West 8.1 mph - N/A   Clear
9:40 AM 28.4 °F 19.7 °F 24.8 °F 86% 29.94 in 10.0 mi West 9.2 mph - N/A   Clear
10:00 AM 28.4 °F 19.7 °F 23.0 °F 80% 29.94 in 10.0 mi WNW 9.2 mph - N/A   Clear
10:20 AM 28.4 °F 19.7 °F 24.8 °F 86% 29.95 in 10.0 mi WNW 9.2 mph - N/A   Clear
10:40 AM 28.4 °F 19.1 °F 24.8 °F 86% 29.96 in 10.0 mi WNW 10.4 mph - N/A   Clear
11:00 AM 32.0 °F 23.0 °F 24.8 °F 75% 29.95 in 10.0 mi WNW 11.5 mph - N/A   Clear
11:20 AM 32.0 °F 23.0 °F 24.8 °F 75% 29.95 in 10.0 mi WNW 11.5 mph - N/A   Clear
11:40 AM 32.0 °F 22.5 °F 24.8 °F 75% 29.94 in 10.0 mi WNW 12.7 mph - N/A   Clear
12:00 PM 32.0 °F 23.6 °F 24.8 °F 75% 29.93 in 10.0 mi WNW 10.4 mph - N/A   Clear
12:20 PM 32.0 °F 24.2 °F 23.0 °F 69% 29.92 in 10.0 mi WNW 9.2 mph - N/A   Clear
1:00 PM 32.0 °F 24.8 °F 24.8 °F 75% 29.91 in 10.0 mi WNW 8.1 mph - N/A   Clear
1:20 PM 32.0 °F 23.6 °F 24.8 °F 75% 29.91 in 10.0 mi West 10.4 mph - N/A   Clear
1:40 PM 32.0 °F 24.2 °F 24.8 °F 75% 29.91 in 10.0 mi West 9.2 mph - N/A   Clear
2:00 PM 32.0 °F 24.8 °F 24.8 °F 75% 29.91 in 10.0 mi West 8.1 mph - N/A   Clear
2:20 PM 33.8 °F 26.4 °F 24.8 °F 70% 29.91 in 10.0 mi West 9.2 mph - N/A   Clear
2:40 PM 33.8 °F 26.4 °F 24.8 °F 70% 29.92 in 10.0 mi West 9.2 mph - N/A   Clear
3:00 PM 33.8 °F 26.4 °F 24.8 °F 70% 29.92 in 10.0 mi West 9.2 mph - N/A   Clear
3:20 PM 32.0 °F 24.2 °F 24.8 °F 75% 29.92 in 10.0 mi West 9.2 mph - N/A   Clear
3:40 PM 32.0 °F 24.8 °F 24.8 °F 75% 29.93 in 10.0 mi West 8.1 mph - N/A   Clear
4:00 PM 32.0 °F 23.6 °F 24.8 °F 75% 29.94 in 10.0 mi West 10.4 mph - N/A   Clear
4:20 PM 32.0 °F 24.2 °F 23.0 °F 69% 29.93 in 10.0 mi WNW 9.2 mph - N/A   Clear
5:00 PM 30.2 °F 23.4 °F 23.0 °F 75% 29.93 in 10.0 mi West 6.9 mph - N/A   Clear
5:20 PM 28.4 °F 21.2 °F 23.0 °F 80% 29.93 in 10.0 mi West 6.9 mph - N/A   Clear
5:40 PM 28.4 °F - 23.0 °F 80% 29.93 in 10.0 mi Calm Calm - N/A   Clear
6:20 PM 23.0 °F 15.8 °F 23.0 °F 100% 29.93 in 10.0 mi SW 5.8 mph - N/A   Clear
6:40 PM 21.2 °F 12.6 °F 21.2 °F 100% 29.94 in 10.0 mi South 6.9 mph - N/A   Clear
7:00 PM 21.2 °F 10.9 °F 21.2 °F 100% 29.94 in 10.0 mi South 9.2 mph - N/A   Clear
7:20 PM 19.4 °F 11.5 °F 19.4 °F 100% 29.94 in 10.0 mi South 5.8 mph - N/A   Clear
7:40 PM 19.4 °F 10.4 °F 19.4 °F 100% 29.94 in 10.0 mi South 6.9 mph - N/A   Clear
8:00 PM 19.4 °F 12.8 °F 19.4 °F 100% 29.94 in 10.0 mi South 4.6 mph - N/A   Clear
8:20 PM 17.6 °F 9.3 °F 17.6 °F 100% 29.94 in 10.0 mi South 5.8 mph - N/A   Clear
8:40 PM 17.6 °F 12.3 °F 17.6 °F 100% 29.94 in 10.0 mi SSW 3.5 mph - N/A   Scattered Clouds
9:20 PM 19.4 °F 12.8 °F 19.4 °F 100% 29.94 in 10.0 mi South 4.6 mph - N/A   Scattered Clouds
9:40 PM 17.6 °F 8.2 °F 17.6 °F 100% 29.94 in 10.0 mi South 6.9 mph - N/A   Scattered Clouds
10:00 PM 17.6 °F 8.2 °F 17.6 °F 100% 29.94 in 10.0 mi South 6.9 mph - N/A   Clear
10:20 PM 17.6 °F 12.3 °F 17.6 °F 100% 29.93 in 10.0 mi SSW 3.5 mph - N/A   Clear
10:40 PM 17.6 °F 12.3 °F 17.6 °F 100% 29.93 in 10.0 mi SSW 3.5 mph - N/A   Clear
11:00 PM 15.8 °F - 15.8 °F 100% 29.92 in 10.0 mi Calm Calm - N/A   Clear
11:20 PM 17.6 °F 9.3 °F 17.6 °F 100% 29.92 in 10.0 mi SSW 5.8 mph - N/A   Clear
11:40 PM 17.6 °F 9.3 °F 17.6 °F 100% 29.91 in 10.0 mi SSW 5.8 mph - N/A   Clear